DW7126 Lourinha PT current weather conditions

sailwx.info

Wind from 236 at 11 knots gusting 19

Air temperature 17.8° C
Dewpoint 12.4° C

Last reported at 2016-May-26 09:55 UTC.
Time now 2016-May-26 10:45 UTC

Location: N 39°14' W 009°18'.
View on Google Maps.

See reports from other nearby stations

  
Tides and Currents Weather Stations Pressure Air Temp Water Temp Dewpoint Dewpoint Depression Visibility Wind Speed Wind Dir Waves Ship Positions
date/time (UTC)wind fromknots sea level pressurealtimeterstation pressurevisibilityair tempwater tempwave heightnotes
2016-May-26 09:55 236 11 gusting 19 17.8
2016-May-26 09:50 242 11 gusting 19 17.2
2016-May-26 09:45 257 13 gusting 18 16.7
2016-May-26 09:40 246 12 gusting 18 16.7
2016-May-26 09:35 263 11 gusting 17 17.2
2016-May-26 09:30 265 9 gusting 15 17.2
2016-May-26 09:25 256 9 gusting 13 17.2
2016-May-26 09:20 262 9 gusting 13 17.8
2016-May-26 09:15 211 6 gusting 14 17.8
2016-May-26 09:10 226 5 gusting 14 17.2
2016-May-26 09:05 216 9 gusting 13 17.8
2016-May-26 09:00 223 6 gusting 12 17.2
2016-May-26 08:55 360 7 gusting 12 16.7
2016-May-26 08:50 360 9 gusting 12 16.7
2016-May-26 08:45 360 5 gusting 11 16.7
2016-May-26 08:40 193 6 gusting 11 16.7
2016-May-26 08:35 205 6 gusting 12 16.7
2016-May-26 08:30 194 5 gusting 9 16.1
2016-May-26 08:21 176 3 gusting 7 16.1
2016-May-26 08:15 173 3 gusting 9 16.1
2016-May-26 08:11 187 5 gusting 9 15.6
2016-May-26 08:05 173 3 gusting 6 15.6
2016-May-26 08:00 178 3 gusting 6 15.6
2016-May-26 07:55 183 3 gusting 6 15.0
2016-May-26 07:50 168 3 gusting 9 15.0
2016-May-26 07:45 193 4 gusting 9 15.0
2016-May-26 07:40 168 4 gusting 9 15.0
2016-May-26 07:35 165 5 gusting 9 14.4
2016-May-26 07:30 136 6 gusting 9 14.4
2016-May-26 07:26 143 5 gusting 9 14.4
2016-May-26 07:20 136 5 gusting 9 13.9
2016-May-26 07:15 159 5 gusting 7 13.9
2016-May-26 07:10 154 4 gusting 7 13.3
2016-May-26 07:05 169 4 gusting 7 13.3
2016-May-26 07:00 153 3 gusting 6 13.3
2016-May-26 06:55 159 2 gusting 5 12.8
2016-May-26 06:51 161 12.8
2016-May-26 06:45 177 12.8
2016-May-26 06:40 207 12.2
2016-May-26 06:35 207 12.2
2016-May-26 06:30 213 11.7
2016-May-26 06:25 216 11.7
2016-May-26 06:20 215 11.7
2016-May-26 06:15 215 11.7
2016-May-26 06:10 215 11.1
2016-May-26 06:00 208 11.1
2016-May-26 05:55 206 11.1
2016-May-26 05:50 206 11.1
2016-May-26 05:45 207 11.1
2016-May-26 05:40 208 10.6
2016-May-26 05:35 209 10.6
2016-May-26 05:30 209 10.6
2016-May-26 05:25 209 10.6
2016-May-26 05:20 209 10.6
2016-May-26 05:15 209 10.6
2016-May-26 05:10 209 11.1
2016-May-26 05:05 209 11.1
2016-May-26 05:00 209 11.1
2016-May-26 04:55 209 10.6
2016-May-26 04:50 209 11.1
2016-May-26 04:45 209 11.7
2016-May-26 04:40 209 10.6
2016-May-26 04:35 209 10.6
2016-May-26 04:30 209 10.6
2016-May-26 04:25 209 10.6
2016-May-26 04:20 209 10.6
2016-May-26 04:15 209 10.6
2016-May-26 04:10 209 10.6
2016-May-26 04:05 209 11.1
2016-May-26 04:00 209 11.1
2016-May-26 03:55 210 10.6
2016-May-26 03:50 210 11.1
2016-May-26 03:45 210 11.1
2016-May-26 03:40 210 11.7
2016-May-26 03:35 210 11.1
2016-May-26 03:30 210 11.1
2016-May-26 03:25 210 11.1
2016-May-26 03:20 210 11.7
2016-May-26 03:15 210 11.7
2016-May-26 03:10 210 12.2
2016-May-26 03:05 210 12.2
2016-May-26 03:00 210 12.2
2016-May-26 02:55 210 12.2
2016-May-26 02:50 210 12.2
2016-May-26 02:45 210 12.2
2016-May-26 02:40 210 12.2
2016-May-26 02:35 210 12.2
2016-May-26 02:30 210 12.2
2016-May-26 02:25 210 12.2
2016-May-26 02:20 210 12.2
2016-May-26 02:15 210 12.2
2016-May-26 02:10 210 12.2
2016-May-26 02:05 210 12.2
2016-May-26 02:00 210 12.2
2016-May-26 01:55 210 12.8
2016-May-26 01:50 210 12.8
2016-May-26 01:45 210 12.2
2016-May-26 01:40 210 12.8
2016-May-26 01:35 210 12.8
2016-May-26 01:30 210 12.8
2016-May-26 01:25 210 12.8
2016-May-26 01:20 210 12.8
2016-May-26 01:15 210 12.8
2016-May-26 01:10 210 12.8
2016-May-26 01:05 210 1 gusting 3 12.8
2016-May-26 01:00 210 2 gusting 4 12.8
2016-May-26 00:55 209 2 gusting 4 12.8
2016-May-26 00:50 209 2 gusting 4 12.8
2016-May-26 00:45 211 3 gusting 4 12.8
2016-May-26 00:40 211 3 gusting 5 12.8
2016-May-26 00:35 211 4 gusting 5 12.8
2016-May-26 00:30 209 4 gusting 5 13.3
2016-May-26 00:25 209 3 gusting 6 13.3
2016-May-26 00:20 207 4 gusting 6 13.3
2016-May-26 00:15 202 4 gusting 5 13.3
2016-May-26 00:10 209 3 gusting 4 12.8
2016-May-26 00:05 211 2 gusting 3 12.8
2016-May-26 00:00 211 3 gusting 4 12.8
2016-May-25 23:55 212 3 gusting 4 13.3
2016-May-25 23:50 212 2 gusting 4 13.3
2016-May-25 23:45 211 3 gusting 4 13.3
2016-May-25 23:40 209 3 gusting 3 13.3
2016-May-25 23:35 207 2 gusting 3 13.3
2016-May-25 23:30 206 1 gusting 4 13.3
2016-May-25 23:25 205 2 gusting 4 13.3
2016-May-25 23:20 202 2 gusting 4 13.3
2016-May-25 23:15 360 1 gusting 3 13.3
2016-May-25 23:10 203 13.3
2016-May-25 23:05 203 13.3
2016-May-25 23:00 203 13.3
2016-May-25 22:55 203 13.3
2016-May-25 22:50 202 13.3
2016-May-25 22:45 202 13.3
2016-May-25 22:40 202 13.3
2016-May-25 22:35 202 13.3
2016-May-25 22:30 202 13.3
2016-May-25 22:25 202 13.3
2016-May-25 22:20 202 13.3
2016-May-25 22:15 202 13.3
2016-May-25 22:10 202 13.9
2016-May-25 22:05 202 13.9
2016-May-25 22:00 202 13.9
2016-May-25 21:55 202 0 gusting 2 13.3
2016-May-25 21:50 202 1 gusting 2 13.3
2016-May-25 21:45 202 1 gusting 3 13.3
2016-May-25 21:40 202 2 gusting 4 13.9
2016-May-25 21:35 203 2 gusting 4 13.9
2016-May-25 21:30 204 3 gusting 4 13.9
2016-May-25 21:25 204 3 gusting 4 13.9
2016-May-25 21:20 205 2 gusting 3 13.3
2016-May-25 21:15 205 2 gusting 3 13.3
2016-May-25 21:10 205 2 gusting 4 13.3
2016-May-25 21:05 205 3 gusting 4 13.3
2016-May-25 21:00 206 3 gusting 4 13.3
2016-May-25 20:55 205 3 gusting 4 13.9
2016-May-25 20:50 204 2 gusting 4 13.9
2016-May-25 20:45 204 3 gusting 4 14.4
2016-May-25 20:40 205 2 gusting 4 15.0
2016-May-25 20:35 209 3 gusting 4 15.0
2016-May-25 20:30 213 3 gusting 5 14.4
2016-May-25 20:25 227 4 gusting 5 15.0
2016-May-25 20:20 234 4 gusting 6 15.0
2016-May-25 20:15 229 4 gusting 7 15.0
2016-May-25 20:10 234 5 gusting 7 15.0
2016-May-25 20:05 247 5 gusting 7 15.6
2016-May-25 20:00 242 4 gusting 6 15.6
2016-May-25 19:55 242 4 gusting 6 15.6
2016-May-25 19:50 238 5 gusting 6 15.6
2016-May-25 19:45 244 4 gusting 6 15.6
2016-May-25 19:40 249 3 gusting 6 15.6
2016-May-25 19:35 246 3 gusting 6 16.1
2016-May-25 19:30 238 4 gusting 6 16.1
2016-May-25 19:25 226 5 gusting 6 16.1
2016-May-25 19:20 251 4 gusting 8 16.1
2016-May-25 19:15 245 5 gusting 9 16.1
2016-May-25 19:10 244 5 gusting 9 16.1
2016-May-25 19:05 250 7 gusting 9 16.7
2016-May-25 19:00 249 4 gusting 10 16.7
2016-May-25 18:55 236 7 gusting 12 16.7
2016-May-25 18:50 247 7 gusting 11 16.7
2016-May-25 18:45 267 7 gusting 11 17.2
2016-May-25 18:40 237 8 gusting 13 16.7
2016-May-25 18:35 241 8 gusting 13 17.2
2016-May-25 18:30 360 8 gusting 14 17.2
2016-May-25 18:25 272 8 gusting 14 17.2
2016-May-25 18:20 246 10 gusting 13 17.2
2016-May-25 18:15 232 9 gusting 14 17.2
2016-May-25 18:10 248 11 gusting 14 17.2
2016-May-25 18:05 239 10 gusting 13 17.2
2016-May-25 18:00 253 8 gusting 12 17.2
2016-May-25 17:55 245 7 gusting 12 17.2
2016-May-25 17:50 245 8 gusting 12 17.2
2016-May-25 17:45 269 7 gusting 12 17.2
2016-May-25 17:40 246 6 gusting 12 17.2
2016-May-25 17:35 259 9 gusting 12 17.8
2016-May-25 17:30 260 9 gusting 13 17.2
2016-May-25 17:25 267 9 gusting 13 17.2
2016-May-25 17:20 259 9 gusting 15 17.2
2016-May-25 17:15 256 11 gusting 15 17.8
2016-May-25 17:10 261 9 gusting 14 17.2
2016-May-25 17:05 263 11 gusting 14 17.2
2016-May-25 17:00 262 10 gusting 13 17.8
2016-May-25 16:55 256 10 gusting 13 17.8
2016-May-25 16:50 262 10 gusting 13 17.8
2016-May-25 16:45 296 10 gusting 14 17.8
2016-May-25 16:40 259 8 gusting 15 17.8
2016-May-25 16:35 271 11 gusting 16 17.2
2016-May-25 16:30 254 12 gusting 16 17.2
2016-May-25 16:25 261 12 gusting 19 17.2
2016-May-25 16:20 247 12 gusting 19 17.2
2016-May-25 16:15 360 14 gusting 19 17.8
2016-May-25 16:10 360 12 gusting 19 17.8
2016-May-25 16:05 248 14 gusting 19 17.8
2016-May-25 16:00 256 14 gusting 19 17.8
2016-May-25 15:55 282 13 gusting 19 17.8
2016-May-25 15:50 257 15 gusting 19 17.8
2016-May-25 15:45 244 13 gusting 19 18.9
2016-May-25 15:40 253 14 gusting 19 18.3
2016-May-25 15:35 360 12 gusting 18 18.3
2016-May-25 15:30 233 11 gusting 19 17.8
2016-May-25 15:25 360 15 gusting 19 17.8
2016-May-25 15:20 279 14 gusting 19 17.8
2016-May-25 15:15 360 15 gusting 19 18.3
2016-May-25 15:10 258 12 gusting 19 18.9
2016-May-25 15:05 258 13 gusting 21 18.9
2016-May-25 15:00 280 15 gusting 20 18.3
2016-May-25 14:55 232 15 gusting 20 18.3
2016-May-25 14:50 231 14 gusting 19 18.3
2016-May-25 14:45 254 13 gusting 19 18.9
2016-May-25 14:40 254 13 gusting 20 18.3
2016-May-25 14:35 228 16 gusting 20 17.8
2016-May-25 14:30 221 15 gusting 19 17.8
2016-May-25 14:25 227 14 gusting 19 17.8
2016-May-25 14:20 238 15 gusting 20 18.3
2016-May-25 14:15 253 14 gusting 20 18.3
2016-May-25 14:10 360 11 gusting 18 18.9
2016-May-25 14:05 232 13 gusting 18 18.3
2016-May-25 14:00 248 13 gusting 19 18.3
2016-May-25 13:55 248 13 gusting 19 18.3
2016-May-25 13:50 260 12 gusting 19 18.9
2016-May-25 13:45 360 13 gusting 20 17.8
2016-May-25 13:40 360 14 gusting 20 18.3
2016-May-25 13:35 232 13 gusting 20 18.9
2016-May-25 13:30 360 13 gusting 20 18.3
2016-May-25 13:25 242 11 gusting 20 18.9
2016-May-25 13:20 240 15 gusting 20 18.3
2016-May-25 13:15 248 12 gusting 19 18.3
2016-May-25 13:10 360 12 gusting 19 18.9
2016-May-25 13:05 360 13 gusting 18 18.3
2016-May-25 13:00 360 12 gusting 18 18.9
2016-May-25 12:55 250 15 gusting 19 19.4
2016-May-25 12:50 257 15 gusting 19 18.3
2016-May-25 12:45 360 14 gusting 18 18.9
2016-May-25 12:40 360 13 gusting 18 18.3
2016-May-25 12:35 267 11 gusting 18 18.3
2016-May-25 12:30 268 13 gusting 18 18.3
2016-May-25 12:25 252 12 gusting 17 17.8
2016-May-25 12:20 255 14 gusting 17 18.3
2016-May-25 12:15 232 12 gusting 17 17.8
2016-May-25 12:10 360 12 gusting 17 18.3
2016-May-25 12:05 229 10 gusting 17 18.3
2016-May-25 12:00 360 11 gusting 17 18.3
2016-May-25 11:55 231 13 gusting 17 18.3
2016-May-25 11:50 273 13 gusting 17 18.3
2016-May-25 11:45 265 13 gusting 18 18.3
2016-May-25 11:40 246 13 gusting 18 17.8
2016-May-25 11:35 360 10 gusting 19 18.3
2016-May-25 11:30 360 13 gusting 19 17.8
2016-May-25 11:25 254 13 gusting 19 17.8
2016-May-25 11:20 254 12 gusting 19 17.8
2016-May-25 11:15 257 15 gusting 19 17.8
2016-May-25 11:10 360 15 gusting 19 18.3
2016-May-25 11:05 360 10 gusting 16 18.3
2016-May-25 11:00 252 10 gusting 16 17.8
2016-May-25 10:55 242 12 gusting 17 17.8
2016-May-25 10:50 234 13 gusting 17 17.8
2016-May-25 10:45 360 11 gusting 19 17.8
2016-May-25 10:40 360 12 gusting 19 17.8
2016-May-25 10:35 360 14 gusting 18 17.2
2016-May-25 10:30 248 9 gusting 17 17.8
2016-May-25 10:25 249 13 gusting 17 17.2
2016-May-25 10:20 257 12 gusting 15 17.2
2016-May-25 10:15 258 10 gusting 13 17.2
2016-May-25 10:10 360 9 gusting 13 17.2
2016-May-25 10:05 360 9 gusting 15 17.2
2016-May-25 10:00 360 11 gusting 15 17.2
2016-May-25 09:55 360 10 gusting 14 17.2
2016-May-25 09:50 232 9 gusting 15 17.2
2016-May-25 09:45 257 10 gusting 14 16.7
2016-May-25 09:40 249 6 gusting 15 17.8
2016-May-25 09:35 235 11 gusting 15 16.7
2016-May-25 09:30 245 7 gusting 13 17.2
2016-May-25 09:25 360 8 gusting 13 16.7
2016-May-25 09:20 236 9 gusting 13 16.7
2016-May-25 09:15 237 10 gusting 16 16.7
2016-May-25 09:10 360 8 gusting 16 16.7
2016-May-25 09:05 360 10 gusting 14 16.7
2016-May-25 09:00 360 10 gusting 14 16.7
2016-May-25 08:55 232 11 gusting 14 16.7
2016-May-25 08:50 252 12 gusting 16 16.1
2016-May-25 08:45 234 13 gusting 16 15.6
2016-May-25 08:40 360 11 gusting 16 16.1
2016-May-25 08:35 234 11 gusting 14 16.1
2016-May-25 08:30 224 10 gusting 14 16.7
2016-May-25 08:25 237 8 gusting 13 16.7
2016-May-25 08:20 238 9 gusting 13 16.1
2016-May-25 08:15 252 7 gusting 12 16.7
2016-May-25 08:10 250 8 gusting 13 16.1
2016-May-25 08:05 242 10 gusting 13 16.1
2016-May-25 08:00 360 8 gusting 12 16.1
2016-May-25 07:55 217 9 gusting 13 15.6
2016-May-25 07:50 208 8 gusting 11 16.1
2016-May-25 07:45 360 6 gusting 12 16.1
2016-May-25 07:40 227 9 gusting 13 15.6
2016-May-25 07:35 230 9 gusting 13 15.6
2016-May-25 07:30 221 10 gusting 13 15.6
2016-May-25 07:25 218 10 gusting 13 15.6
2016-May-25 07:20 360 7 gusting 11 15.6
2016-May-25 07:15 360 7 gusting 10 15.6
2016-May-25 07:10 238 6 gusting 9 15.6
2016-May-25 07:05 222 6 gusting 7 15.0
2016-May-25 07:00 210 5 gusting 9 15.0
2016-May-25 06:55 217 6 gusting 9 15.0
2016-May-25 06:50 215 6 gusting 9 15.0
2016-May-25 06:45 211 6 gusting 9 15.0
2016-May-25 06:40 199 6 gusting 9 15.0
2016-May-25 06:35 211 6 gusting 8 15.0
2016-May-25 06:30 202 6 gusting 7 15.0
2016-May-25 06:25 215 6 gusting 8 15.0
2016-May-25 06:20 217 6 gusting 8 15.0
2016-May-25 06:15 360 6 gusting 7 15.0
2016-May-25 06:10 210 6 gusting 11 15.0
2016-May-25 06:05 201 7 gusting 11 15.0
2016-May-25 06:00 202 6 gusting 9 14.4
2016-May-25 05:55 198 6 gusting 9 14.4
2016-May-25 05:50 208 6 gusting 8 14.4
2016-May-25 05:45 205 6 gusting 7 14.4
2016-May-25 05:40 206 6 gusting 6 14.4
2016-May-25 05:35 219 6 gusting 8 14.4
2016-May-25 05:30 217 6 gusting 8 14.4
2016-May-25 05:25 211 6 gusting 7 14.4
2016-May-25 05:20 212 6 gusting 9 14.4
2016-May-25 05:15 208 5 gusting 9 14.4
2016-May-25 05:10 210 6 gusting 9 14.4
2016-May-25 05:05 209 6 gusting 9 14.4
2016-May-25 05:00 223 6 gusting 11 14.4
2016-May-25 04:55 360 6 gusting 12 14.4
2016-May-25 04:50 360 6 gusting 9 14.4
2016-May-25 04:45 219 5 gusting 8 14.4
2016-May-25 04:40 201 6 gusting 9 14.4
2016-May-25 04:35 205 6 gusting 9 14.4
2016-May-25 04:30 201 5 gusting 6 14.4
2016-May-25 04:25 205 6 gusting 7 14.4
2016-May-25 04:20 220 6 gusting 7 14.4
2016-May-25 04:15 216 6 gusting 8 14.4
2016-May-25 04:10 212 6 gusting 8 14.4
2016-May-25 04:05 217 6 gusting 7 14.4
2016-May-25 04:00 207 6 gusting 8 14.4
2016-May-25 03:55 211 6 gusting 6 14.4
2016-May-25 03:50 208 6 gusting 6 14.4
2016-May-25 03:45 215 5 gusting 6 13.9
2016-May-25 03:40 223 6 gusting 7 13.9
2016-May-25 03:35 360 5 gusting 7 13.9
2016-May-25 03:30 223 6 gusting 6 13.9
2016-May-25 03:25 221 6 gusting 6 13.9
2016-May-25 03:20 220 5 gusting 6 13.9
2016-May-25 03:15 220 5 gusting 6 13.9
2016-May-25 03:10 209 6 gusting 6 13.9
2016-May-25 03:05 214 6 gusting 6 13.9
2016-May-25 03:00 221 6 gusting 8 13.9
2016-May-25 02:55 221 6 gusting 8 13.9
2016-May-25 02:50 217 6 gusting 7 13.9
2016-May-25 02:45 225 6 gusting 8 13.9
2016-May-25 02:40 227 6 gusting 8 13.9
2016-May-25 02:35 236 6 gusting 8 14.4
2016-May-25 02:30 236 5 gusting 8 14.4
2016-May-25 02:25 244 5 gusting 7 14.4
2016-May-25 02:20 238 6 gusting 8 14.4
2016-May-25 02:15 229 6 gusting 9 14.4
2016-May-25 02:10 236 7 gusting 9 14.4
2016-May-25 02:05 224 6 gusting 8 14.4
2016-May-25 02:00 226 6 gusting 9 14.4
2016-May-25 01:55 236 6 gusting 9 14.4
2016-May-25 01:50 225 6 gusting 9 14.4
2016-May-25 01:45 240 6 gusting 8 14.4
2016-May-25 01:40 236 6 gusting 9 14.4
2016-May-25 01:35 235 6 gusting 9 14.4
2016-May-25 01:30 232 7 gusting 10 15.0
2016-May-25 01:25 227 7 gusting 10 14.4
2016-May-25 01:20 225 7 gusting 10 15.0
2016-May-25 01:15 250 6 gusting 10 15.0
2016-May-25 01:10 239 7 gusting 11 15.0
2016-May-25 01:05 234 7 gusting 11 15.0
2016-May-25 01:00 240 6 gusting 11 15.0
2016-May-25 00:55 242 6 gusting 12 15.0
2016-May-25 00:50 231 7 gusting 12 15.0
2016-May-25 00:45 241 8 gusting 12 15.0
2016-May-25 00:40 242 9 gusting 12 15.0
2016-May-25 00:35 360 7 gusting 12 15.0
2016-May-25 00:30 229 6 gusting 13 15.0
2016-May-25 00:25 232 8 gusting 13 15.0
2016-May-25 00:20 243 8 gusting 12 15.0
2016-May-25 00:15 239 8 gusting 13 15.0
2016-May-25 00:10 245 9 gusting 13 15.0
2016-May-25 00:05 360 10 gusting 14 15.0
2016-May-25 00:00 239 9 gusting 14 15.0
2016-May-24 23:55 360 8 gusting 15 15.0
2016-May-24 23:50 360 7 gusting 15 15.0
2016-May-24 23:45 360 7 gusting 12 15.0
2016-May-24 23:40 234 7 gusting 11 15.0
2016-May-24 23:35 245 6 gusting 11 15.0
2016-May-24 23:30 360 7 gusting 11 15.0
2016-May-24 23:25 229 6 gusting 10 15.0
2016-May-24 23:20 236 6 gusting 9 15.0
2016-May-24 23:15 360 6 gusting 7 15.0
2016-May-24 23:10 223 5 gusting 7 15.0
2016-May-24 23:05 213 6 gusting 8 15.0
2016-May-24 23:00 226 6 gusting 9 15.0
2016-May-24 22:55 209 6 gusting 10 15.0
2016-May-24 22:50 205 6 gusting 8 15.0
2016-May-24 22:45 360 6 gusting 8 15.0
2016-May-24 22:40 360 6 gusting 7 15.0
2016-May-24 22:35 209 5 gusting 6 15.0
2016-May-24 22:30 223 5 gusting 6 15.0
2016-May-24 22:25 228 5 gusting 6 15.0
2016-May-24 22:20 215 5 gusting 6 15.0
2016-May-24 22:15 218 4 gusting 6 15.0
2016-May-24 22:10 220 5 gusting 7 15.0
2016-May-24 22:05 223 6 gusting 9 15.0
2016-May-24 22:00 250 6 gusting 9 15.0
2016-May-24 21:55 217 6 gusting 8 15.0
2016-May-24 21:50 230 6 gusting 8 15.0
2016-May-24 21:45 231 6 gusting 9 15.0
2016-May-24 21:40 236 6 gusting 9 15.0
2016-May-24 21:35 230 6 gusting 9 15.0
2016-May-24 21:30 246 6 gusting 9 15.0
2016-May-24 21:25 236 5 gusting 8 15.0
2016-May-24 21:20 228 6 gusting 9 15.0
2016-May-24 21:15 230 6 gusting 9 15.0
2016-May-24 21:10 245 6 gusting 9 15.6
2016-May-24 21:05 248 6 gusting 9 15.6
2016-May-24 21:00 239 7 gusting 10 15.6
2016-May-24 20:55 248 6 gusting 10 15.6
2016-May-24 20:50 360 6 gusting 10 15.6
2016-May-24 20:45 360 6 gusting 10 15.6
2016-May-24 20:40 234 7 gusting 10 15.6
2016-May-24 20:35 242 7 gusting 9 15.6
2016-May-24 20:30 253 6 gusting 10 15.6
2016-May-24 20:25 230 8 gusting 13 15.6
2016-May-24 20:20 230 7 gusting 13 15.6
2016-May-24 20:15 360 7 gusting 10 15.6
2016-May-24 20:10 239 7 gusting 11 15.6
2016-May-24 20:05 246 7 gusting 11 15.6
2016-May-24 20:00 244 5 gusting 12 15.6
2016-May-24 19:55 360 8 gusting 12 15.6
2016-May-24 19:50 256 7 gusting 10 15.6
2016-May-24 19:45 360 6 gusting 10 15.6
2016-May-24 19:40 232 6 gusting 9 15.6
2016-May-24 19:35 360 6 gusting 10 15.6
2016-May-24 19:30 234 6 gusting 14 15.6
2016-May-24 19:25 234 9 gusting 14 15.6
2016-May-24 19:20 260 7 gusting 11 15.6
2016-May-24 19:15 234 6 gusting 10 16.1
2016-May-24 19:10 244 6 gusting 10 16.1
2016-May-24 19:05 360 6 gusting 13 16.1
2016-May-24 19:00 227 8 gusting 13 16.1
2016-May-24 18:55 234 7 gusting 13 16.1
2016-May-24 18:50 236 7 gusting 13 16.1
2016-May-24 18:45 248 6 gusting 12 16.1
2016-May-24 18:40 360 7 gusting 13 16.1
2016-May-24 18:35 257 8 gusting 13 16.1
2016-May-24 18:30 241 6 gusting 13 16.1
2016-May-24 18:25 240 6 gusting 12 16.1
2016-May-24 18:20 221 8 gusting 12 16.1
2016-May-24 18:15 232 8 gusting 13 16.1
2016-May-24 18:10 360 8 gusting 13 16.1
2016-May-24 18:05 223 7 gusting 13 16.1
2016-May-24 18:00 236 6 gusting 13 16.1
2016-May-24 17:55 221 10 gusting 13 16.1
2016-May-24 17:50 238 8 gusting 13 16.1
2016-May-24 17:45 227 11 gusting 15 16.1
2016-May-24 17:40 221 10 gusting 15 16.7
2016-May-24 17:35 200 7 gusting 13 16.7
2016-May-24 17:30 257 10 gusting 14 16.7
2016-May-24 17:25 261 11 gusting 14 16.7
2016-May-24 17:20 236 12 gusting 15 16.7
2016-May-24 17:15 251 13 gusting 15 16.7
2016-May-24 17:10 228 10 gusting 14 16.7
2016-May-24 17:05 230 12 gusting 14 16.7
2016-May-24 17:00 360 9 gusting 14 16.7
2016-May-24 16:55 360 9 gusting 14 16.7
2016-May-24 16:50 245 10 gusting 15 16.7
2016-May-24 16:45 244 11 gusting 15 16.7
2016-May-24 16:40 360 11 gusting 18 16.7
2016-May-24 16:35 250 11 gusting 18 16.7
2016-May-24 16:30 360 10 gusting 14 16.7
2016-May-24 16:25 240 7 gusting 17 16.7
2016-May-24 16:20 234 12 gusting 17 17.2
2016-May-24 16:15 254 12 gusting 16 16.7
2016-May-24 16:10 360 11 gusting 19 16.7
2016-May-24 16:05 225 11 gusting 21 16.7
2016-May-24 16:00 360 14 gusting 21 16.7
2016-May-24 15:55 360 10 gusting 19 16.7
2016-May-24 15:50 217 10 gusting 19 16.7
2016-May-24 15:45 224 13 gusting 19 16.7
2016-May-24 15:40 240 12 gusting 19 17.2
2016-May-24 15:35 244 13 gusting 18 17.2
2016-May-24 15:30 232 13 gusting 19 17.2
2016-May-24 15:25 255 13 gusting 19 17.2
2016-May-24 15:20 253 16 gusting 20 16.7
2016-May-24 15:15 360 15 gusting 20 17.2
2016-May-24 15:10 360 12 gusting 20 17.2
2016-May-24 15:05 360 13 gusting 19 17.2
2016-May-24 15:00 233 12 gusting 19 17.8
2016-May-24 14:55 254 15 gusting 19 17.2
2016-May-24 14:50 221 13 gusting 23 17.8
2016-May-24 14:45 263 16 gusting 23 17.8
2016-May-24 14:40 360 14 gusting 22 17.8
2016-May-24 14:35 360 13 gusting 21 18.3
2016-May-24 14:30 260 16 gusting 21 17.8
2016-May-24 14:25 260 17 gusting 24 17.8
2016-May-24 14:20 252 13 gusting 24 18.3
2016-May-24 14:15 250 16 gusting 23 18.3
2016-May-24 14:10 360 16 gusting 23 17.8
2016-May-24 14:05 248 15 gusting 20 18.3
2016-May-24 14:00 360 14 gusting 21 18.3
2016-May-24 13:55 208 17 gusting 21 18.3
2016-May-24 13:50 229 18 gusting 24 17.8
2016-May-24 13:45 257 16 gusting 24 17.8
2016-May-24 13:40 235 15 gusting 23 17.8
2016-May-24 13:35 233 17 gusting 23 17.2
2016-May-24 13:30 244 16 gusting 23 17.8
2016-May-24 13:25 360 14 gusting 21 17.8
2016-May-24 13:20 245 17 gusting 21 17.8
2016-May-24 13:15 234 17 gusting 24 17.2
2016-May-24 13:10 240 18 gusting 26 17.8
2016-May-24 13:05 360 17 gusting 26 17.8
2016-May-24 13:00 249 17 gusting 26 17.2
2016-May-24 12:55 360 18 gusting 26 17.8
2016-May-24 12:50 227 15 gusting 24 17.8
2016-May-24 12:45 229 15 gusting 24 17.8
2016-May-24 12:40 231 14 gusting 20 17.8
2016-May-24 12:35 240 14 gusting 20 17.2
2016-May-24 12:30 248 14 gusting 20 17.8
2016-May-24 12:25 360 15 gusting 20 17.2
2016-May-24 12:20 360 14 gusting 19 17.8
2016-May-24 12:15 241 12 gusting 19 18.3
2016-May-24 12:10 360 13 gusting 20 17.8
2016-May-24 12:05 217 14 gusting 20 17.8
2016-May-24 12:00 232 13 gusting 19 18.3
2016-May-24 11:55 236 14 gusting 20 17.8
2016-May-24 11:50 226 13 gusting 20 18.3
2016-May-24 11:45 239 11 gusting 20 18.3
2016-May-24 11:40 239 13 gusting 20 17.8
2016-May-24 11:35 219 14 gusting 21 17.8
2016-May-24 11:30 217 15 gusting 21 17.2
2016-May-24 11:25 360 15 gusting 21 17.2
2016-May-24 11:20 273 14 gusting 22 17.8
2016-May-24 11:15 360 15 gusting 23 17.2
2016-May-24 11:10 360 16 gusting 23 17.8
2016-May-24 11:05 360 17 gusting 21 17.2
2016-May-24 11:00 360 15 gusting 20 17.2
2016-May-24 10:55 360 15 gusting 21 17.2
2016-May-24 10:50 360 17 gusting 21 16.7
2016-May-24 10:45 360 15 gusting 19 17.2
2016-May-24 10:40 360 11 gusting 18 17.8
2016-May-24 10:35 360 14 gusting 19 16.7
2016-May-24 10:30 360 13 gusting 19 17.2
2016-May-24 10:25 360 13 gusting 19 17.2
2016-May-24 10:20 261 12 gusting 19 16.7